{"data":{"norad_id":59537,"intl_designator":"2024-074D","name":"STARLINK-31737","alt_names":[],"object_type":"PAYLOAD","status":"ACTIVE","operator":null,"country":"US","launch_date":"2024-04-18","launch_site_code":"AFETR","launch_vehicle":null,"mission":null,"orbit_class":"UNKNOWN","rcs_meters":null,"size_class":null,"mass_kg":null,"dimensions":null,"purposes":["comms"],"wikipedia_slug":null,"has_3d_model":false,"image_url":null,"decayed_at":null,"tle_current":{"epoch":"2026-09-21T10:43:06.950208Z","epoch_age_seconds":86447,"freshness":"FRESH","line1":"1 59537U 24074D   26264.44660822  .00000486  00000+0  27195-4 0  9993","line2":"2 59537  43.0029 317.9225 0001227 273.0704  87.0008 15.27580810135956","mean_motion":15.2758081,"eccentricity":0.0001227,"inclination_deg":43.0029,"raan_deg":317.9225,"arg_perigee_deg":273.0704,"mean_anomaly_deg":87.0008,"bstar":2.7195e-5,"rev_number":13595,"period_min":94.266698728691,"perigee_km":482.20480337294,"apogee_km":483.88853784571,"semimajor_km":6861.1836706093,"source":"CELESTRAK","updated_at":"2026-09-22T09:00:48.968233Z"}}}